Simultaneous Nadir Overpasses (SNOs) Predictions

Prediction of SNOs between GOES-16 and NOAA-20 Satellite Orbit:

Table of predicted SNOs for the next 14.0 days since TLE Epoch: 5/20/2023
Index Date Time (GOES-16) GOES-16 Lat,Lon NOAA-20 Lat,Lon Distance(km) Time Diff (sec)
1 05/20/2023 18:33:47 0.02, -75.20 -0.41, -77.25 233.33 80
2 05/21/2023 18:17:42 0.02, -75.20 0.56, -72.71 283.67 80
3 05/23/2023 06:39:30 -0.03, -75.21 0.57, -77.98 315.57 80
4 05/24/2023 06:20:45 -0.03, -75.21 -0.40, -73.44 201.86 80
5 05/25/2023 18:40:01 0.03, -75.23 -0.78, -78.74 400.80 80
6 05/26/2023 18:23:57 0.03, -75.24 0.26, -74.21 117.15 80
7 05/28/2023 06:43:04 -0.03, -75.26 0.93, -79.47 480.56 80
8 05/29/2023 06:26:59 -0.03, -75.27 -0.11, -74.94 37.79 80
9 05/31/2023 18:27:31 0.04, -75.31 -0.02, -75.72 45.14 80
10 06/01/2023 18:11:26 0.04, -75.33 0.96, -71.17 473.62 80
